Mountain Home, Arkansas, United States (72653)
Lat: 36.34N, Lon: 92.39W
Wx Zone: ARZ005
Local Info
Past Weather Observations for Saturday, February 28, 2015

NOTE: This archive is for the closest National Weather Service station to Mountain Home. Information may differ from the station used for current weather conditions.

Click here for Long-term Archive

Time Weather Temperature Dewpoint Humidity Pressure Winds Precip Visibility
23:53
Overcast
Light Freezing Rain
27°F / -3°C 27°F / -3°C 100% 30.36 in
(1028 mb)
Calm 0.00 in
(0.00 mm)
3SM
23:27
Overcast
Light Freezing Rain
27°F / -3°C 25°F / -4°C 93% 30.36 in
(1028 mb)
E 4.6 mph
(E 7 kph)
0.00 in
(0.00 mm)
4SM
22:53
Overcast
Unknown Precip
27°F / -3°C 25°F / -4°C 93% 30.39 in
(1029 mb)
E 3.5 mph
(E 6 kph)
0.00 in
(0.00 mm)
3SM
22:07
Overcast
Light Freezing Rain
27°F / -3°C 25°F / -4°C 93% 30.39 in
(1029 mb)
SE 4.6 mph
(SE 7 kph)
0.00 in
(0.00 mm)
3SM
21:53
Overcast
Unknown Precip
27°F / -3°C 25°F / -4°C 93% 30.39 in
(1029 mb)
Calm 0.00 in
(0.00 mm)
5SM
20:53
Overcast
27°F / -3°C 25°F / -4°C 93% 30.39 in
(1029 mb)
SE 5.8 mph
(SE 9 kph)
0.00 in
(0.00 mm)
7SM
20:38
Overcast
Fog And Mist
27°F / -3°C 25°F / -4°C 93% 30.39 in
(1029 mb)
SE 9.2 mph
(SE 15 kph)
0.00 in
(0.00 mm)
6SM
20:09
Overcast
Light Freezing Rain
27°F / -3°C 25°F / -4°C 93% 30.39 in
(1029 mb)
E 10.4 mph
(E 17 kph)
0.00 in
(0.00 mm)
3SM
20:02
Overcast
Freezing Rain
27°F / -3°C 25°F / -4°C 93% 30.39 in
(1029 mb)
E 8.1 mph
(E 13 kph)
0.00 in
(0.00 mm)
2 1/2SM
19:53
Overcast
Light Freezing Rain
27°F / -3°C 25°F / -4°C 93% 30.39 in
(1029 mb)
ESE 8.1 mph
(ESE 13 kph)
0.00 in
(0.00 mm)
4SM
19:28
Overcast
Light Freezing Rain
27°F / -3°C 25°F / -4°C 93% 30.39 in
(1029 mb)
SE 5.8 mph
(SE 9 kph)
0.00 in
(0.00 mm)
4SM
19:18
Overcast
Light Freezing Rain
27°F / -3°C 25°F / -4°C 93% 30.39 in
(1029 mb)
E 4.6 mph
(E 7 kph)
0.00 in
(0.00 mm)
5SM
18:53
Overcast
Unknown Precip
27°F / -3°C 25°F / -4°C 93% 30.39 in
(1029 mb)
E 5.8 mph
(E 9 kph)
0.00 in
(0.00 mm)
7SM
18:13
Overcast
Unknown Precip
27°F / -3°C 23°F / -5°C 86% 30.39 in
(1029 mb)
NE 4.6 mph
(NE 7 kph)
0.00 in
(0.00 mm)
6SM
18:04
Overcast
Unknown Precip
27°F / -3°C 25°F / -4°C 93% 30.39 in
(1029 mb)
ENE 4.6 mph
(ENE 7 kph)
0.00 in
(0.00 mm)
5SM
17:53
Overcast
Unknown Precip
27°F / -3°C 23°F / -5°C 86% 30.39 in
(1029 mb)
Variable 3.5 mph
(Variable 6 kph)
0.00 in
(0.00 mm)
5SM
17:35
Overcast
Fog And Mist
27°F / -3°C 23°F / -5°C 86% 30.39 in
(1029 mb)
ENE 3.5 mph
(ENE 6 kph)
0.00 in
(0.00 mm)
5SM
17:29
Overcast
Unknown Precip
27°F / -3°C 23°F / -5°C 86% 30.39 in
(1029 mb)
ENE 4.6 mph
(ENE 7 kph)
0.00 in
(0.00 mm)
5SM
17:22
Overcast
Unknown Precip
27°F / -3°C 23°F / -5°C 86% 30.39 in
(1029 mb)
ENE 5.8 mph
(ENE 9 kph)
0.00 in
(0.00 mm)
5SM
17:13
Overcast
Unknown Precip
27°F / -3°C 23°F / -5°C 86% 30.39 in
(1029 mb)
ENE 5.8 mph
(ENE 9 kph)
0.00 in
(0.00 mm)
4SM
16:56
Overcast
Light Freezing Rain
27°F / -3°C 25°F / -4°C 93% 30.39 in
(1029 mb)
ENE 4.6 mph
(ENE 7 kph)
0.00 in
(0.00 mm)
3SM
16:53
Overcast
Unknown Precip
27°F / -3°C 25°F / -4°C 93% 30.39 in
(1029 mb)
E 4.6 mph
(E 7 kph)
0.00 in
(0.00 mm)
2 1/2SM
16:44
Overcast
Unknown Precip
27°F / -3°C 25°F / -4°C 93% 30.39 in
(1029 mb)
ENE 5.8 mph
(ENE 9 kph)
0.00 in
(0.00 mm)
2SM
16:26
Overcast
Light Freezing Rain
27°F / -3°C 23°F / -5°C 86% 30.39 in
(1029 mb)
ENE 4.6 mph
(ENE 7 kph)
0.00 in
(0.00 mm)
2 1/2SM
15:53
Overcast
Light Freezing Rain
27°F / -3°C 23°F / -5°C 86% 30.39 in
(1029 mb)
ENE 5.8 mph
(ENE 9 kph)
0.00 in
(0.00 mm)
4SM
15:32
Overcast
Unknown Precip
27°F / -3°C 23°F / -5°C 86% 30.39 in
(1029 mb)
NE 3.5 mph
(NE 6 kph)
0.00 in
(0.00 mm)
4SM
15:24
Overcast
Unknown Precip
27°F / -3°C 23°F / -5°C 86% 30.39 in
(1029 mb)
E 3.5 mph
(E 6 kph)
0.00 in
(0.00 mm)
3SM
15:17
Overcast
Light Snow
27°F / -3°C 23°F / -5°C 86% 30.39 in
(1029 mb)
E 4.6 mph
(E 7 kph)
0.00 in
(0.00 mm)
2 1/2SM
14:53
Overcast
Unknown Precip
25°F / -4°C 21°F / -6°C 86% 30.42 in
(1030 mb)
Calm 0.00 in
(0.00 mm)
4SM
14:43
Overcast
Unknown Precip
25°F / -4°C 21°F / -6°C 86% 30.42 in
(1030 mb)
E 4.6 mph
(E 7 kph)
0.00 in
(0.00 mm)
5SM
14:18
Overcast
Unknown Precip
25°F / -4°C 21°F / -6°C 86% 30.39 in
(1029 mb)
E 6.9 mph
(E 11 kph)
0.00 in
(0.00 mm)
4SM
13:53
Overcast
Light Snow
25°F / -4°C 21°F / -6°C 86% 30.42 in
(1030 mb)
ESE 5.8 mph
(ESE 9 kph)
0.00 in
(0.00 mm)
3SM
13:37
Overcast
Light Snow
23°F / -5°C 21°F / -6°C 93% 30.42 in
(1030 mb)
ESE 6.9 mph
(ESE 11 kph)
0.00 in
(0.00 mm)
3/4SM
13:29
Obscured
Snow
23°F / -5°C 19°F / -7°C 86% 30.42 in
(1030 mb)
ESE 4.6 mph
(ESE 7 kph)
0.00 in
(0.00 mm)
1/2SM
13:10
Obscured
Snow
23°F / -5°C 19°F / -7°C 86% 30.45 in
(1031 mb)
ESE 5.8 mph
(ESE 9 kph)
0.00 in
(0.00 mm)
1/2SM
12:59
Obscured
Light Snow
23°F / -5°C 19°F / -7°C 86% 30.45 in
(1031 mb)
E 4.6 mph
(E 7 kph)
0.00 in
(0.00 mm)
3/4SM
12:53
Obscured
Snow
23°F / -5°C 19°F / -7°C 86% 30.45 in
(1031 mb)
SE 5.8 mph
(SE 9 kph)
0.00 in
(0.00 mm)
1/2SM
12:32
Overcast
Light Snow
23°F / -5°C 19°F / -7°C 86% 30.48 in
(1032 mb)
ESE 5.8 mph
(ESE 9 kph)
0.00 in
(0.00 mm)
3/4SM
12:25
Overcast
Light Snow
23°F / -5°C 19°F / -7°C 86% 30.48 in
(1032 mb)
ESE 6.9 mph
(ESE 11 kph)
0.00 in
(0.00 mm)
1SM
12:14
Overcast
Light Snow
23°F / -5°C 19°F / -7°C 86% 30.48 in
(1032 mb)
ESE 5.8 mph
(ESE 9 kph)
0.00 in
(0.00 mm)
3/4SM
12:07
Obscured
Snow
21°F / -6°C 19°F / -7°C 93% 30.51 in
(1033 mb)
ESE 6.9 mph
(ESE 11 kph)
0.00 in
(0.00 mm)
1/2SM
11:53
Overcast
Snow
21°F / -6°C 19°F / -7°C 93% 30.51 in
(1033 mb)
E 5.8 mph
(E 9 kph)
0.00 in
(0.00 mm)
1/2SM
11:51
Overcast
Light Snow
21°F / -6°C 19°F / -7°C 93% 30.51 in
(1033 mb)
E 6.9 mph
(E 11 kph)
0.00 in
(0.00 mm)
3/4SM
11:30
Overcast
Light Snow
21°F / -6°C 18°F / -8°C 86% 30.51 in
(1033 mb)
E 6.9 mph
(E 11 kph)
0.00 in
(0.00 mm)
1 1/4SM
11:08
Overcast
Light Snow
21°F / -6°C 18°F / -8°C 86% 30.51 in
(1033 mb)
ESE 9.2 mph
(ESE 15 kph)
0.00 in
(0.00 mm)
1 1/4SM
10:53
Overcast
Light Snow
21°F / -6°C 18°F / -8°C 86% 30.51 in
(1033 mb)
ESE 9.2 mph
(ESE 15 kph)
0.00 in
(0.00 mm)
2 1/2SM
10:45
Overcast
Light Snow
21°F / -6°C 18°F / -8°C 86% 30.51 in
(1033 mb)
SE 9.2 mph
(SE 15 kph)
0.00 in
(0.00 mm)
3SM
10:35
Overcast
Light Snow
21°F / -6°C 18°F / -8°C 86% 30.51 in
(1033 mb)
SE 8.1 mph
(SE 13 kph)
0.00 in
(0.00 mm)
2 1/2SM
10:26
Overcast
Light Snow
21°F / -6°C 18°F / -8°C 86% 30.51 in
(1033 mb)
ESE 9.2 mph
(ESE 15 kph)
0.00 in
(0.00 mm)
3SM
09:53
Overcast
Light Snow
21°F / -6°C 18°F / -8°C 86% 30.51 in
(1033 mb)
E 9.2 mph
(E 15 kph)
0.00 in
(0.00 mm)
4SM
09:41
Overcast
Light Snow
21°F / -6°C 18°F / -8°C 86% 30.54 in
(1034 mb)
E 9.2 mph
(E 15 kph)
0.00 in
(0.00 mm)
3SM
09:12
Overcast
Light Snow
19°F / -7°C 16°F / -9°C 86% 30.54 in
(1034 mb)
E 9.2 mph
(E 15 kph)
0.00 in
(0.00 mm)
2SM
08:53
Overcast
Light Snow
19°F / -7°C 16°F / -9°C 86% 30.54 in
(1034 mb)
E 6.9 mph
(E 11 kph)
0.00 in
(0.00 mm)
1SM
08:46
Overcast
Light Snow
19°F / -7°C 16°F / -9°C 86% 30.54 in
(1034 mb)
E 8.1 mph
(E 13 kph)
0.00 in
(0.00 mm)
1SM
08:34
Overcast
Light Snow
19°F / -7°C 16°F / -9°C 86% 30.54 in
(1034 mb)
ESE 8.1 mph
(ESE 13 kph)
0.00 in
(0.00 mm)
1 3/4SM
08:16
Overcast
Light Snow
19°F / -7°C 16°F / -9°C 86% 30.54 in
(1034 mb)
E 9.2 mph
(E 15 kph)
0.00 in
(0.00 mm)
3SM
07:53
Overcast
Light Snow
19°F / -7°C 16°F / -9°C 86% 30.54 in
(1034 mb)
E 8.1 mph
(E 13 kph)
0.00 in
(0.00 mm)
1 1/2SM
07:36
Overcast
Light Snow
19°F / -7°C 16°F / -9°C 86% 30.54 in
(1034 mb)
E 6.9 mph
(E 11 kph)
0.00 in
(0.00 mm)
2 1/2SM
06:53
Overcast
Light Snow
19°F / -7°C 16°F / -9°C 86% 30.54 in
(1034 mb)
E 8.1 mph
(E 13 kph)
0.00 in
(0.00 mm)
5SM
05:53
Overcast
Light Snow
18°F / -8°C 16°F / -9°C 93% 30.54 in
(1034 mb)
E 6.9 mph
(E 11 kph)
0.00 in
(0.00 mm)
5SM
04:53
Overcast
Light Snow
18°F / -8°C 16°F / -9°C 93% 30.51 in
(1033 mb)
ENE 5.8 mph
(ENE 9 kph)
0.00 in
(0.00 mm)
4SM
04:29
Overcast
Light Snow
18°F / -8°C 16°F / -9°C 93% 30.54 in
(1034 mb)
ENE 5.8 mph
(ENE 9 kph)
0.00 in
(0.00 mm)
4SM
04:19
Overcast
Light Snow
18°F / -8°C 16°F / -9°C 93% 30.51 in
(1033 mb)
ENE 5.8 mph
(ENE 9 kph)
0.00 in
(0.00 mm)
2 1/2SM
03:53
Overcast
Light Snow
19°F / -7°C 16°F / -9°C 86% 30.51 in
(1033 mb)
E 5.8 mph
(E 9 kph)
0.00 in
(0.00 mm)
4SM
02:53
Overcast
Light Snow
18°F / -8°C 16°F / -9°C 93% 30.51 in
(1033 mb)
E 4.6 mph
(E 7 kph)
0.00 in
(0.00 mm)
6SM
02:31
Overcast
Light Snow
18°F / -8°C 16°F / -9°C 93% 30.54 in
(1034 mb)
E 4.6 mph
(E 7 kph)
0.00 in
(0.00 mm)
4SM
01:58
Overcast
Light Snow
18°F / -8°C 16°F / -9°C 93% 30.54 in
(1034 mb)
E 8.1 mph
(E 13 kph)
0.00 in
(0.00 mm)
2SM
01:53
Overcast
Light Snow
19°F / -7°C 16°F / -9°C 86% 30.54 in
(1034 mb)
E 5.8 mph
(E 9 kph)
0.00 in
(0.00 mm)
1 3/4SM
01:27
Overcast
Light Snow
19°F / -7°C 16°F / -9°C 86% 30.54 in
(1034 mb)
ENE 3.5 mph
(ENE 6 kph)
0.00 in
(0.00 mm)
1 3/4SM
01:17
Overcast
Light Snow
19°F / -7°C 16°F / -9°C 86% 30.54 in
(1034 mb)
E 5.8 mph
(E 9 kph)
0.00 in
(0.00 mm)
2SM
01:10
Overcast
Light Snow
19°F / -7°C 14°F / -10°C 79% 30.54 in
(1034 mb)
E 6.9 mph
(E 11 kph)
0.00 in
(0.00 mm)
2SM
00:53
Overcast
Light Snow
19°F / -7°C 14°F / -10°C 79% 30.54 in
(1034 mb)
E 4.6 mph
(E 7 kph)
0.00 in
(0.00 mm)
3SM
00:33
Overcast
Light Snow
19°F / -7°C 14°F / -10°C 79% 30.54 in
(1034 mb)
E 6.9 mph
(E 11 kph)
0.00 in
(0.00 mm)
5SM
00:26
Overcast
19°F / -7°C 14°F / -10°C 79% 30.54 in
(1034 mb)
ESE 8.1 mph
(ESE 13 kph)
- 9SM
Time Weather Temperature Dewpoint Humidity Pressure Winds Precip Visibility


Weather for websites

WeatherForYou.com, LLC is not responsible for any damages or problems caused by this service. Current weather conditions are obtained from the closest station including government and personal stations which may have varying degrees of accuracy. Weather forecasts are derived from the NOAA NDFD. Like all things, this site belongs to Jesus Christ... He just trusts me to maintain it. If you have any questions or comments email webmaster@weatherforyou.com

Copyright © 2015, WeatherForYou.com LLC. All rights reserved.